Location: *
(34.8620°S, 39.3380°E)
Time: 07:46:15
(UTC+00:00)

SAOCOM 1-B - Pass Details

Date: 31 May 2022
Orbit: 621 x 623 km, 97.9° (Epoch: 06 July)

Event Time Altitude Azimuth Distance (km) Brightness Sun altitude
Rises 03:32:14 0° 168° (SSE) 2,938 ? -10.0°
Reaches altitude 10° 03:34:27 10° 168° (SSE) 2,024 ? -9.6°
Maximum altitude 03:38:52 90° 20° (NNE) 636 ? -8.7°
Drops below altitude 10° 03:43:13 10° 347° (NNW) 1,996 ? -7.9°
Sets 03:45:23 0° 347° (NNW) 2,894 ? -7.5°
